This is the latest recevied weather packets stored in our database for station/object KB1RMA-4. If no packets are shown the sender has not sent any weather packets the latest 10 day(s).
| Time | Temp. | Humidity | Pressure | Rain* | Wind** | Luminosity | Snow |
|---|---|---|---|---|---|---|---|
| 1788557607 | 22.78° C | 74% | 1008.5 hPa | 0 mm | - | 59 W/m² | - |
| 1788557303 | 23.33° C | 73% | 1008.4 hPa | 0 mm | - | 57 W/m² | - |
| 1788557003 | 22.78° C | 74% | 1008.4 hPa | 0 mm | - | 58 W/m² | - |
| 1788556698 | 22.78° C | 74% | 1008.6 hPa | 0 mm | - | 58 W/m² | - |
| 1788556393 | 23.33° C | 74% | 1008.5 hPa | 0 mm | - | 157 W/m² | - |
| 1788556089 | 23.33° C | 73% | 1008.7 hPa | 0 mm | - | 192 W/m² | - |
| 1788555788 | 23.33° C | 73% | 1008.7 hPa | 0 mm | - | 88 W/m² | - |
| 1788555484 | 23.33° C | 74% | 1008.5 hPa | 0 mm | - | 259 W/m² | - |
| 1788555180 | 23.33° C | 74% | 1008.6 hPa | 0 mm | - | 215 W/m² | - |
| 1788554876 | 22.78° C | 74% | 1008.4 hPa | 0 mm | - | 146 W/m² | - |
| 1788554572 | 22.78° C | 75% | 1008.7 hPa | 0 mm | - | 179 W/m² | - |
| 1788554268 | 22.22° C | 76% | 1008.3 hPa | 0 mm | - | 144 W/m² | - |
| 1788553964 | 22.22° C | 76% | 1008.7 hPa | 0 mm | - | 131 W/m² | - |
| 1788553660 | 22.78° C | 75% | 1008.5 hPa | 0 mm | - | 208 W/m² | - |
| 1788553356 | 23.33° C | 73% | 1008.8 hPa | 0 mm | - | 156 W/m² | - |
| 1788553063 | 24.44° C | 70% | 1008.5 hPa | 0 mm | - | 163 W/m² | - |
| 1788552751 | 25° C | 68% | 1008.4 hPa | 0 mm | - | 229 W/m² | - |
| 1788552446 | 24.44° C | 69% | 1008.8 hPa | 0 mm | - | 195 W/m² | - |
| 1788552141 | 24.44° C | 67% | 1008.6 hPa | 0 mm | - | 466 W/m² | - |
| 1788551840 | 24.44° C | 69% | 1008.6 hPa | 0 mm | - | 185 W/m² | - |
| 1788551538 | 25° C | 68% | 1008.4 hPa | 0 mm | - | 147 W/m² | - |
| 1788551234 | 25.56° C | 66% | 1008.2 hPa | 0 mm | - | 192 W/m² | - |
| 1788550933 | 25.56° C | 68% | 1008.3 hPa | 0 mm | - | 532 W/m² | - |
| 1788550628 | 25.56° C | 67% | 1008.2 hPa | 0 mm | - | 502 W/m² | - |
| 1788550325 | 25.56° C | 67% | 1008.1 hPa | 0 mm | - | 516 W/m² | - |
* Rain latest hour (hover to see other rain measurements)
** Current wind speed in m/s (hover to see current wind gust speed)